EW9451 Weather Reports


Display with metric or nautical units.
time (UTC)temp
F
wind
direction
speed
MPH
gust
MPH
rain 1hr
in
rain 24hr
in
rain mn
in
humidity
%
barometer
mb
20260906030037 58 288 1.0 5.0 0.00 0.03 0.03 95 1008.6
20260906025535 58 250 1.0 5.0 0.00 0.03 0.03 95 1008.6
20260906025036 58 303 1.0 5.0 0.00 0.03 0.03 95 1008.7
20260906024536 58 257 1.0 3.0 0.00 0.03 0.03 95 1008.7
20260906024032 58 245 0.0 3.0 0.00 0.03 0.03 95 1008.6
20260906023531 59 261 0.0 2.0 0.00 0.03 0.03 95 1008.5
20260906023032 59 217 0.0 3.0 0.00 0.03 0.03 96 1008.4
20260906022530 59 194 0.0 3.0 0.00 0.03 0.03 96 1008.5
20260906022031 59 295 1.0 2.0 0.00 0.03 0.03 96 1008.6
20260906021538 59 294 0.0 2.0 0.00 0.03 0.03 96 1008.6
20260906021029 59 349 0.0 2.0 0.00 0.03 0.03 96 1008.6
20260906020530 59 278 0.0 2.0 0.00 0.03 0.03 96 1008.6
20260906020028 59 278 0.0 2.0 0.00 0.03 0.03 96 1008.6
20260906015529 59 294 0.0 2.0 0.00 0.03 0.03 96 1008.6
20260906015028 60 278 0.0 1.0 0.00 0.03 0.03 96 1008.6
20260906014528 60 294 0.0 2.0 0.00 0.03 0.03 96 1008.7
20260906014030 60 263 0.0 2.0 0.00 0.03 0.03 96 1008.7
20260906013527 60 263 0.0 2.0 0.00 0.03 0.03 96 1008.7
20260906013027 60 263 0.0 2.0 0.00 0.03 0.03 96 1008.6
20260906012529 60 259 0.0 2.0 0.00 0.03 0.03 96 1008.5
20260906012026 60 240 0.0 2.0 0.00 0.03 0.03 96 1008.7
20260906011527 60 240 0.0 0.0 0.00 0.03 0.03 96 1008.5
20260906011027 60 240 0.0 1.0 0.00 0.03 0.03 95 1008.6
20260906010526 60 240 0.0 1.0 0.00 0.03 0.03 95 1008.5
20260906010026 60 240 0.0 0.0 0.00 0.03 0.03 95 1008.5
20260906005525 60 240 0.0 0.0 0.00 0.03 0.03 95 1008.4
20260906005025 60 240 0.0 0.0 0.00 0.03 0.03 95 1008.4
20260906004524 60 240 0.0 0.0 0.00 0.03 0.03 95 1008.3
20260906004023 60 240 0.0 0.0 0.00 0.03 0.03 95 1008.3
20260906003522 60 240 0.0 0.0 0.00 0.03 0.03 95 1008.2
20260906003022 60 240 0.0 0.0 0.00 0.03 0.03 95 1008.2
20260906002521 60 240 0.0 0.0 0.00 0.03 0.03 95 1008.1
20260906002021 60 240 0.0 1.0 0.00 0.03 0.03 95 1008.0
20260906001539 60 240 0.0 3.0 0.00 0.03 0.03 95 1008.0
20260906001020 60 232 0.0 3.0 0.00 0.03 0.03 95 1008.1
20260906000521 60 292 0.0 2.0 0.00 0.03 0.03 95 1008.0
20260906000021 60 273 0.0 2.0 0.00 0.03 0.03 95 1008.0
20260905235520 60 273 0.0 2.0 0.01 0.03 0.03 95 1008.0
20260905235020 60 273 0.0 2.0 0.01 0.03 0.03 95 1008.0
20260905234519 61 249 0.0 2.0 0.01 0.03 0.03 95 1008.0
20260905234018 61 249 0.0 3.0 0.01 0.03 0.03 95 1007.9
20260905233519 61 275 1.0 3.0 0.01 0.03 0.03 94 1007.9
20260905233021 61 275 0.0 2.0 0.01 0.03 0.03 94 1007.8
20260905232523 61 275 0.0 1.0 0.01 0.03 0.03 94 1007.7
20260905232019 61 232 0.0 0.0 0.01 0.03 0.03 94 1007.7
20260905231522 61 232 0.0 1.0 0.01 0.03 0.03 94 1007.7
20260905231021 61 248 0.0 1.0 0.01 0.03 0.03 94 1007.6
20260905230517 61 262 0.0 3.0 0.01 0.03 0.03 94 1007.7
20260905230021 61 132 0.0 3.0 0.01 0.03 0.03 93 1007.7
20260905225520 61 275 0.0 3.0 0.00 0.02 0.02 93 1007.8
20260905225017 61 203 0.0 3.0 0.00 0.02 0.02 93 1007.8
20260905224521 62 348 0.0 3.0 0.00 0.02 0.02 93 1007.9
20260905224015 62 281 0.0 2.0 0.00 0.02 0.02 93 1007.8
20260905223513 62 90 0.0 4.0 0.00 0.02 0.02 93 1007.6
20260905223030 62 229 0.0 4.0 0.00 0.02 0.02 92 1007.6
20260905222513 62 232 0.0 4.0 0.00 0.02 0.02 92 1007.6
20260905222013 62 270 0.0 2.0 0.00 0.02 0.02 93 1007.6
20260905221512 62 257 0.0 1.0 0.00 0.02 0.02 92 1007.4
20260905221011 62 240 0.0 1.0 0.02 0.02 0.02 92 1007.4
20260905220514 62 256 0.0 4.0 0.02 0.02 0.02 92 1007.3
20260905220011 63 280 0.0 4.0 0.02 0.02 0.02 91 1007.3
20260905215511 63 250 0.0 4.0 0.02 0.02 0.02 91 1007.2
20260905215110 63 355 0.0 4.0 0.02 0.02 0.02 90 1007.2
20260905214512 64 242 0.0 3.0 0.02 0.02 0.02 90 1007.1
20260905214008 64 265 0.0 4.0 0.02 0.02 0.02 89 1007.0
20260905213509 64 211 1.0 4.0 0.02 0.02 0.02 89 1007.0
20260905213008 65 106 0.0 2.0 0.02 0.02 0.02 88 1006.9
20260905212508 65 290 0.0 3.0 0.02 0.02 0.02 85 1006.9
20260905212006 67 37 0.0 5.0 0.02 0.02 0.02 85 1006.9
20260905211506 68 36 0.0 5.0 0.02 0.02 0.02 84 1006.8
20260905211005 68 17 2.0 8.0 0.00 0.00 0.00 84 1006.6
20260905210505 68 14 2.0 8.0 0.00 0.00 0.00 83 1006.6
20260905210005 68 234 2.0 6.0 0.00 0.00 0.00 82 1006.5
20260905205506 68 242 1.0 4.0 0.00 0.00 0.00 82 1006.5
20260905205006 68 349 1.0 4.0 0.00 0.00 0.00 83 1006.5
20260905204504 67 5 1.0 5.0 0.00 0.00 0.00 86 1006.4
20260905204004 65 321 1.0 5.0 0.00 0.00 0.00 88 1006.4
20260905203506 64 287 1.0 4.0 0.00 0.00 0.00 88 1006.5
20260905203004 64 305 1.0 4.0 0.00 0.00 0.00 88 1006.5
20260905202503 64 245 1.0 3.0 0.00 0.00 0.00 88 1006.5
20260905202004 64 264 1.0 3.0 0.00 0.00 0.00 89 1006.5
20260905201504 64 269 0.0 2.0 0.00 0.00 0.00 89 1006.5
20260905201003 64 271 0.0 3.0 0.00 0.00 0.00 88 1006.5
20260905200503 64 261 0.0 4.0 0.00 0.00 0.00 88 1006.5
20260905200003 64 278 0.0 5.0 0.00 0.00 0.00 87 1006.5
20260905195503 65 290 1.0 8.0 0.00 0.00 0.00 86 1006.5
20260905195006 66 280 2.0 8.0 0.00 0.00 0.00 85 1006.5
20260905194502 66 225 1.0 6.0 0.00 0.00 0.00 83 1006.4
20260905194002 66 275 1.0 9.0 0.00 0.00 0.00 84 1006.3
20260905193502 65 245 1.0 4.0 0.00 0.00 0.00 83 1006.3
20260905193007 65 336 0.0 4.0 0.00 0.00 0.00 84 1006.3
20260905192502 65 348 1.0 4.0 0.00 0.00 0.00 82 1006.4
20260905192001 65 216 2.0 4.0 0.00 0.00 0.00 84 1006.5
20260905191501 66 235 1.0 7.0 0.00 0.00 0.00 84 1006.5
20260905191001 66 248 2.0 7.0 0.00 0.00 0.00 83 1006.3
20260905190602 66 19 2.0 7.0 0.00 0.00 0.00 84 1006.3
20260905190101 66 294 1.0 6.0 0.00 0.00 0.00 84 1006.3
20260905185600 66 247 1.0 6.0 0.00 0.00 0.00 83 1006.3
20260905185059 66 279 1.0 6.0 0.00 0.00 0.00 84 1006.4
20260905184608 66 173 2.0 9.0 0.00 0.00 0.00 83 1006.4
20260905184059 66 284 2.0 9.0 0.00 0.00 0.00 84 1006.4
20260905183559 66 241 1.0 6.0 0.00 0.00 0.00 84 1006.4
20260905183059 66 286 2.0 8.0 0.00 0.00 0.00 84 1006.5
20260905182559 67 273 1.0 3.0 0.00 0.00 0.00 84 1006.5
20260905182059 68 293 1.0 8.0 0.00 0.00 0.00 83 1006.5
20260905181559 68 343 3.0 8.0 0.00 0.00 0.00 82 1006.4
20260905181058 68 323 1.0 5.0 0.00 0.00 0.00 82 1006.3
20260905180558 68 271 1.0 5.0 0.00 0.00 0.00 83 1006.4
20260905180056 68 312 1.0 7.0 0.00 0.00 0.00 82 1006.3
20260905175557 67 317 2.0 7.0 0.00 0.00 0.00 81 1006.4
20260905175056 67 294 1.0 7.0 0.00 0.00 0.00 83 1006.4
20260905174555 67 309 1.0 5.0 0.00 0.00 0.00 81 1006.4
20260905174054 67 259 2.0 6.0 0.00 0.00 0.00 82 1006.5
20260905173555 67 256 2.0 6.0 0.00 0.00 0.00 80 1006.5
20260905173055 67 286 2.0 6.0 0.00 0.00 0.00 82 1006.6
20260905172553 66 321 1.0 4.0 0.00 0.00 0.00 86 1006.5
20260905172053 65 263 1.0 4.0 0.00 0.00 0.00 87 1006.6
20260905171553 65 309 0.0 3.0 0.00 0.00 0.00 87 1006.5
20260905171052 65 336 1.0 4.0 0.00 0.00 0.00 87 1006.6
20260905170552 64 322 1.0 4.0 0.00 0.00 0.00 85 1006.6
20260905170053 65 316 2.0 7.0 0.00 0.00 0.00 84 1006.6
20260905165551 65 280 2.0 7.0 0.00 0.00 0.00 82 1006.6
20260905165051 66 275 1.0 7.0 0.00 0.00 0.00 80 1006.6
20260905164551 67 255 2.0 7.0 0.00 0.00 0.00 83 1006.5
20260905164050 66 260 2.0 6.0 0.00 0.00 0.00 80 1006.6
20260905163550 66 267 1.0 4.0 0.00 0.00 0.00 81 1006.5
20260905163050 66 16 1.0 4.0 0.00 0.00 0.00 81 1006.6
20260905162550 66 332 0.0 4.0 0.00 0.00 0.00 81 1006.6
20260905162050 66 225 1.0 5.0 0.00 0.00 0.00 79 1006.6
20260905161549 66 313 2.0 5.0 0.00 0.00 0.00 81 1006.6
20260905161049 66 146 0.0 2.0 0.00 0.00 0.00 84 1006.6
20260905160549 65 163 0.0 3.0 0.00 0.00 0.00 84 1006.7
20260905160050 65 280 0.0 4.0 0.00 0.00 0.00 83 1006.7
20260905155547 65 246 1.0 5.0 0.00 0.00 0.00 81 1006.8
20260905155047 66 157 2.0 6.0 0.00 0.00 0.00 81 1006.7
20260905154551 66 293 2.0 6.0 0.00 0.00 0.00 81 1006.7
20260905154050 66 325 0.0 3.0 0.00 0.00 0.00 83 1006.7
20260905153548 65 179 1.0 9.0 0.00 0.00 0.00 84 1006.6
20260905153045 65 274 2.0 9.0 0.00 0.00 0.00 84 1006.6
20260905152546 65 281 0.0 8.0 0.00 0.00 0.00 85 1006.5
20260905152044 64 238 1.0 8.0 0.00 0.00 0.00 86 1006.6
20260905151555 64 284 2.0 7.0 0.00 0.00 0.00 85 1006.6
20260905151044 65 311 1.0 5.0 0.00 0.00 0.00 84 1006.6
20260905150544 65 268 2.0 7.0 0.00 0.00 0.00 85 1006.6
20260905150048 65 259 2.0 7.0 0.00 0.00 0.00 84 1006.7
20260905145546 65 305 1.0 9.0 0.00 0.00 0.00 85 1006.7
20260905145043 65 261 2.0 9.0 0.00 0.00 0.00 84 1006.6
20260905144547 65 248 3.0 8.0 0.00 0.00 0.00 83 1006.5
20260905144041 65 288 1.0 7.0 0.00 0.00 0.00 83 1006.4
20260905143540 65 303 1.0 7.0 0.00 0.00 0.00 84 1006.4
20260905143040 65 257 2.0 8.0 0.00 0.00 0.00 85 1006.4
20260905142543 64 253 1.0 8.0 0.00 0.00 0.00 85 1006.4
20260905142039 64 262 2.0 7.0 0.00 0.00 0.00 86 1006.5
20260905141539 64 274 2.0 7.0 0.00 0.00 0.00 84 1006.4
20260905141038 65 249 2.0 6.0 0.00 0.00 0.00 85 1006.4
20260905140537 64 212 2.0 5.0 0.00 0.00 0.00 87 1006.3
20260905140038 64 209 2.0 5.0 0.00 0.00 0.00 88 1006.5
20260905135534 63 305 1.0 5.0 0.00 0.00 0.00 88 1006.4
20260905135033 63 266 2.0 5.0 0.00 0.00 0.00 88 1006.4
20260905134538 63 281 0.0 7.0 0.00 0.00 0.00 89 1006.3
20260905134037 63 300 0.0 7.0 0.00 0.00 0.00 89 1006.3
20260905133532 63 272 2.0 5.0 0.00 0.00 0.00 89 1006.3
20260905133032 62 259 0.0 8.0 0.00 0.00 0.00 89 1006.2
20260905132531 62 271 1.0 8.0 0.00 0.00 0.00 90 1006.1
20260905132030 62 306 2.0 4.0 0.00 0.00 0.00 91 1006.2
20260905131528 62 67 1.0 3.0 0.00 0.00 0.00 91 1006.1
20260905131030 62 225 1.0 6.0 0.00 0.00 0.00 92 1006.2
20260905130527 62 273 2.0 6.0 0.00 0.00 0.00 92 1006.1
20260905130026 62 288 0.0 5.0 0.00 0.00 0.00 93 1006.1
20260905125526 62 271 1.0 4.0 0.00 0.00 0.00 93 1006.0
20260905125028 61 288 2.0 6.0 0.00 0.00 0.00 94 1006.1
20260905124527 61 275 1.0 6.0 0.00 0.00 0.00 95 1006.0
20260905124024 61 280 1.0 4.0 0.00 0.00 0.00 95 1006.0
20260905123526 61 272 0.0 6.0 0.00 0.00 0.00 95 1005.9
20260905123052 61 263 2.0 6.0 0.00 0.00 0.00 95 1005.8
20260905122523 61 246 2.0 5.0 0.00 0.00 0.00 96 1005.9
20260905122022 61 266 2.0 4.0 0.00 0.00 0.00 97 1005.8
20260905121521 61 236 1.0 4.0 0.00 0.00 0.00 97 1005.7
20260905121021 61 259 1.0 4.0 0.00 0.00 0.00 96 1005.6
20260905120521 60 305 1.0 3.0 0.00 0.00 0.00 96 1005.7
20260905120027 60 293 0.0 3.0 0.00 0.00 0.00 96 1005.7
20260905115524 60 277 1.0 3.0 0.00 0.00 0.00 96 1005.8
20260905115022 60 240 0.0 4.0 0.00 0.00 0.00 96 1005.8
20260905114521 60 262 1.0 4.0 0.00 0.00 0.00 96 1005.7
20260905114020 60 277 1.0 4.0 0.00 0.00 0.00 96 1005.7
20260905113520 60 290 1.0 4.0 0.00 0.00 0.00 96 1005.7
20260905113025 60 243 1.0 4.0 0.00 0.00 0.00 96 1005.6
20260905112518 60 330 1.0 3.0 0.00 0.00 0.00 96 1005.5
20260905112017 60 269 0.0 3.0 0.00 0.00 0.00 96 1005.5
20260905111516 60 259 0.0 2.0 0.00 0.00 0.00 96 1005.5
20260905111015 60 239 0.0 2.0 0.00 0.00 0.00 96 1005.4
20260905110517 60 252 0.0 2.0 0.00 0.00 0.00 96 1005.4
20260905110015 60 258 0.0 5.0 0.00 0.00 0.00 96 1005.2
20260905105514 60 298 0.0 5.0 0.00 0.00 0.00 96 1005.3
20260905105013 60 348 1.0 3.0 0.00 0.00 0.00 95 1005.1
20260905104513 60 299 1.0 3.0 0.00 0.00 0.00 95 1005.1
20260905104013 60 261 0.0 3.0 0.00 0.00 0.00 95 1005.1
20260905103514 60 298 0.0 2.0 0.00 0.00 0.00 95 1005.1
20260905103012 60 294 0.0 2.0 0.00 0.00 0.00 95 1005.1
20260905102512 60 317 0.0 2.0 0.00 0.00 0.00 95 1005.0
20260905102011 60 271 0.0 3.0 0.00 0.00 0.00 95 1005.0
20260905101510 60 280 1.0 3.0 0.00 0.00 0.00 95 1005.0
20260905101011 60 276 1.0 2.0 0.00 0.00 0.00 95 1005.1
20260905100511 60 266 0.0 2.0 0.00 0.00 0.00 95 1005.0
20260905100010 60 302 0.0 2.0 0.00 0.00 0.00 95 1005.0
20260905095510 60 318 0.0 1.0 0.00 0.00 0.00 95 1005.0
20260905095009 60 318 0.0 1.0 0.00 0.00 0.00 95 1005.0
20260905094509 60 259 0.0 1.0 0.00 0.00 0.00 95 1004.9
20260905094009 60 259 0.0 2.0 0.00 0.00 0.00 95 1004.9
20260905093512 60 337 0.0 4.0 0.00 0.00 0.00 95 1004.9
20260905093009 60 262 1.0 4.0 0.00 0.00 0.00 95 1004.9
20260905092511 60 312 0.0 2.0 0.00 0.00 0.00 95 1005.0
20260905092009 60 312 0.0 2.0 0.00 0.00 0.00 95 1005.0
20260905091508 60 68 0.0 2.0 0.00 0.00 0.00 95 1004.9
20260905091008 60 328 0.0 0.0 0.00 0.00 0.00 95 1004.9
20260905090507 60 327 0.0 2.0 0.00 0.00 0.00 95 1004.9
20260905090007 60 242 0.0 2.0 0.00 0.00 0.00 95 1004.9
20260905085511 60 274 0.0 1.0 0.00 0.00 0.00 95 1004.8
20260905085009 60 274 0.0 1.0 0.00 0.00 0.00 95 1004.8
20260905084506 60 274 0.0 1.0 0.00 0.00 0.00 95 1004.8
20260905084008 60 274 0.0 0.0 0.00 0.00 0.00 95 1004.8
20260905083508 60 274 0.0 0.0 0.00 0.00 0.00 95 1004.7
20260905083007 60 274 0.0 0.0 0.00 0.00 0.00 95 1004.7
20260905082507 60 274 0.0 0.0 0.00 0.00 0.00 95 1004.7
20260905082005 60 274 0.0 0.0 0.00 0.00 0.00 95 1004.7
20260905081506 60 274 0.0 1.0 0.00 0.00 0.00 95 1004.7
20260905081004 60 274 0.0 2.0 0.00 0.00 0.00 95 1004.6
20260905080506 60 274 0.0 2.0 0.00 0.00 0.00 95 1004.8
20260905080013 60 274 0.0 1.0 0.00 0.00 0.00 95 1004.7
20260905075504 60 274 0.0 2.0 0.00 0.00 0.00 95 1004.6
20260905075004 60 274 0.0 2.0 0.00 0.00 0.00 95 1004.7
20260905074503 60 304 0.0 2.0 0.00 0.00 0.00 95 1004.7
20260905074002 60 47 0.0 0.0 0.00 0.00 0.00 96 1004.6
20260905073502 60 47 0.0 0.0 0.00 0.00 0.00 95 1004.7
20260905073003 60 47 0.0 0.0 0.00 0.00 0.00 96 1004.7
20260905072502 60 48 0.0 0.0 0.00 0.00 0.00 95 1004.7
20260905072001 60 47 0.0 0.0 0.00 0.00 0.00 95 1004.8
20260905071502 60 47 0.0 0.0 0.00 0.00 0.00 95 1004.8
20260905071001 60 47 0.0 0.0 0.00 0.00 0.00 95 1004.8
20260905070600 60 47 0.0 0.0 0.00 0.00 0.00 95 1004.9
20260905070100 60 47 0.0 0.0 0.00 0.00 0.00 95 1004.9
20260905065601 60 47 0.0 0.0 0.00 0.00 0.00 95 1004.8
20260905065059 60 47 0.0 0.0 0.00 0.00 0.00 95 1004.8
20260905064603 60 47 0.0 0.0 0.00 0.00 0.00 95 1004.8
20260905064059 60 48 0.0 0.0 0.00 0.00 0.00 95 1004.9
20260905063559 60 47 0.0 0.0 0.00 0.00 0.00 95 1004.9
20260905063059 60 47 0.0 0.0 0.00 0.00 0.00 95 1004.9
20260905062558 60 47 0.0 1.0 0.00 0.00 0.00 96 1004.9
20260905062058 60 47 0.0 1.0 0.00 0.00 0.00 95 1004.9
20260905061600 60 47 0.0 1.0 0.00 0.00 0.00 95 1004.9
20260905061058 60 45 0.0 0.0 0.00 0.00 0.00 96 1004.9
20260905060557 60 45 0.0 0.0 0.00 0.00 0.00 96 1004.9
20260905060104 60 45 0.0 0.0 0.00 0.00 0.00 96 1004.9
20260905055600 60 45 0.0 0.0 0.00 0.00 0.00 95 1004.9
20260905055100 60 45 0.0 0.0 0.00 0.00 0.00 95 1004.9
20260905054604 60 45 0.0 0.0 0.00 0.00 0.00 95 1004.9
20260905054056 60 45 0.0 0.0 0.00 0.00 0.00 95 1004.9
20260905053556 60 45 0.0 0.0 0.00 0.00 0.00 95 1004.8
20260905053109 60 45 0.0 0.0 0.00 0.00 0.00 95 1004.9
20260905052600 60 45 0.0 1.0 0.00 0.00 0.00 95 1004.9
20260905052055 60 45 0.0 1.0 0.00 0.00 0.00 95 1005.0
20260905051557 60 126 0.0 1.0 0.00 0.00 0.00 95 1004.9
20260905051053 60 126 0.0 2.0 0.00 0.00 0.00 95 1004.9
20260905050553 60 126 1.0 2.0 0.00 0.00 0.00 94 1005.0
20260905050053 60 187 0.0 1.0 0.00 0.00 0.00 95 1004.8
20260905045552 60 187 0.0 0.0 0.00 0.04 0.00 95 1005.0
20260905045052 60 187 0.0 0.0 0.00 0.04 0.00 95 1004.9
20260905044601 60 187 0.0 0.0 0.00 0.04 0.00 95 1004.9
20260905044051 60 187 0.0 0.0 0.00 0.04 0.00 95 1004.9
20260905043551 60 187 0.0 0.0 0.00 0.04 0.00 95 1004.9
20260905043106 60 187 0.0 1.0 0.00 0.04 0.00 95 1005.0
20260905042550 60 187 0.0 2.0 0.00 0.04 0.00 95 1005.0
20260905042050 60 187 0.0 2.0 0.00 0.04 0.00 94 1004.9
20260905041549 61 187 0.0 1.0 0.00 0.04 0.00 94 1004.9
20260905041053 61 187 0.0 1.0 0.00 0.04 0.00 94 1005.0
20260905040548 61 187 0.0 0.0 0.00 0.04 0.00 94 1004.9
20260905040051 61 187 0.0 0.0 0.00 0.04 0.00 94 1004.9
20260905035547 61 187 0.0 0.0 0.00 0.04 0.04 94 1004.9
20260905035047 61 187 0.0 1.0 0.00 0.04 0.04 93 1004.9
20260905034552 61 187 0.0 1.0 0.00 0.04 0.04 94 1004.8
20260905034047 61 187 0.0 1.0 0.00 0.04 0.04 94 1004.9
20260905033546 61 187 0.0 2.0 0.00 0.04 0.04 94 1004.9
20260905033046 61 187 0.0 2.0 0.00 0.04 0.04 94 1004.9
20260905032550 61 187 0.0 2.0 0.00 0.04 0.04 94 1005.0
20260905032045 61 187 0.0 2.0 0.00 0.04 0.04 93 1005.0
20260905031545 61 187 0.0 2.0 0.00 0.04 0.04 93 1005.1
20260905031048 62 187 0.0 0.0 0.00 0.04 0.04 93 1005.1
20260905030545 62 187 0.0 1.0 0.00 0.04 0.04 93 1005.1